When you browse on this site, cookies collect data to enhance your experience and personalize the content and advertising you see.
Visit our Privacy Policy to learn more. By continuing to use the site, you agree to this use of cookies and data.
  • In Spain
  • List of Countries
  • For 7 days
  • Water Temperature
  • Weather Map
  • Weather Widgets
  • user-avatar
    Login

    Hourly Weather Lezhe

    Today, 30 May, Saturday

    Time Temperature Precipitation Wind Pressure Humidity
    00:00 +12°C° 0 mm 2 mps 738 mmHg 82%
    01:00 +12°C° 0 mm 2 mps 738 mmHg 81%
    02:00 +12°C° 0 mm 2 mps 738 mmHg 81%
    03:00 +10°C° 0 mm 2 mps 738 mmHg 81%
    04:00 +10°C° 0 mm 2 mps 737 mmHg 81%
    05:00 +13°C° 0 mm 1 mps 737 mmHg 77%
    06:00 +14°C° 0 mm 1 mps 737 mmHg 72%
    07:00 +16°C° 0 mm 1 mps 737 mmHg 68%
    08:00 +18°C° 0.2 mm 1 mps 737 mmHg 65%
    09:00 +18°C° 0.2 mm 2 mps 737 mmHg 63%
    10:00 +19°C° 0.2 mm 2 mps 737 mmHg 60%
    11:00 +19°C° 0.8 mm 2 mps 737 mmHg 62%
    12:00 +19°C° 0.8 mm 3 mps 736 mmHg 65%
    13:00 +19°C° 0.8 mm 3 mps 736 mmHg 67%
    14:00 +19°C° 0.4 mm 3 mps 736 mmHg 66%
    15:00 +19°C° 0.4 mm 3 mps 736 mmHg 65%
    16:00 +18°C° 0.4 mm 2 mps 736 mmHg 63%
    17:00 +17°C° 0 mm 2 mps 736 mmHg 68%
    18:00 +16°C° 0 mm 1 mps 736 mmHg 72%
    19:00 +13°C° 0 mm 0 mps 736 mmHg 77%
    20:00 +14°C° 0 mm 1 mps 736 mmHg 77%
    21:00 +14°C° 0 mm 1 mps 737 mmHg 78%
    22:00 +13°C° 0 mm 1 mps 737 mmHg 78%
    23:00 +14°C° 0 mm 1 mps 737 mmHg 77%

    Tomorrow, 31 May, Sunday

    Time Temperature Precipitation Wind Pressure Humidity
    00:00 +14°C° 0 mm 1 mps 737 mmHg 76%
    01:00 +14°C° 0 mm 1 mps 737 mmHg 75%
    02:00 +14°C° 0.1 mm 1 mps 736 mmHg 76%
    03:00 +14°C° 0.1 mm 1 mps 736 mmHg 76%
    04:00 +13°C° 0.1 mm 1 mps 736 mmHg 77%
    05:00 +14°C° 0.1 mm 1 mps 736 mmHg 76%
    06:00 +15°C° 0.1 mm 1 mps 736 mmHg 76%
    07:00 +15°C° 0.1 mm 1 mps 736 mmHg 75%
    08:00 +15°C° 0.1 mm 1 mps 736 mmHg 76%
    09:00 +16°C° 0.1 mm 1 mps 736 mmHg 77%
    10:00 +16°C° 0.1 mm 2 mps 736 mmHg 78%
    11:00 +17°C° 0.4 mm 2 mps 735 mmHg 75%
    12:00 +17°C° 0.4 mm 2 mps 735 mmHg 73%
    13:00 +18°C° 0.4 mm 2 mps 734 mmHg 71%
    14:00 +18°C° 0.6 mm 2 mps 734 mmHg 71%
    15:00 +20°C° 0.6 mm 1 mps 734 mmHg 71%
    16:00 +20°C° 0.6 mm 1 mps 734 mmHg 71%
    17:00 +18°C° 0.6 mm 1 mps 734 mmHg 76%
    18:00 +16°C° 0.6 mm 1 mps 734 mmHg 82%
    19:00 +14°C° 0.6 mm 1 mps 734 mmHg 88%
    20:00 +14°C° 0.6 mm 1 mps 735 mmHg 88%
    21:00 +13°C° 0.6 mm 1 mps 735 mmHg 89%
    22:00 +13°C° 0.6 mm 1 mps 735 mmHg 90%
    23:00 +13°C° 0.3 mm 1 mps 735 mmHg 90%

    Day after tomorrow, 1 June, Monday

    Time Temperature Precipitation Wind Pressure Humidity
    00:00 +12°C° 0.3 mm 1 mps 735 mmHg 90%
    01:00 +12°C° 0.3 mm 1 mps 735 mmHg 90%
    02:00 +12°C° 0.2 mm 1 mps 734 mmHg 89%
    03:00 +12°C° 0.2 mm 1 mps 734 mmHg 89%
    04:00 +12°C° 0.2 mm 1 mps 734 mmHg 89%
    05:00 +13°C° 0 mm 1 mps 734 mmHg 85%
    06:00 +15°C° 0 mm 1 mps 734 mmHg 81%
    07:00 +16°C° 0 mm 1 mps 734 mmHg 77%
    08:00 +18°C° 0.1 mm 1 mps 734 mmHg 71%
    09:00 +20°C° 0.1 mm 1 mps 735 mmHg 65%
    10:00 +21°C° 0.1 mm 1 mps 735 mmHg 58%
    11:00 +20°C° 0.2 mm 2 mps 734 mmHg 58%
    12:00 +21°C° 0.2 mm 2 mps 734 mmHg 58%
    13:00 +21°C° 0.2 mm 3 mps 734 mmHg 57%
    14:00 +20°C° 0.6 mm 3 mps 734 mmHg 62%
    15:00 +20°C° 0.6 mm 3 mps 734 mmHg 66%
    16:00 +19°C° 0.6 mm 3 mps 734 mmHg 70%
    17:00 +18°C° 0.4 mm 2 mps 734 mmHg 75%
    18:00 +17°C° 0.4 mm 2 mps 734 mmHg 79%
    19:00 +16°C° 0.4 mm 1 mps 734 mmHg 84%
    20:00 +15°C° 0 mm 1 mps 734 mmHg 84%
    21:00 +14°C° 0 mm 2 mps 734 mmHg 84%
    22:00 +13°C° 0 mm 2 mps 734 mmHg 85%
    23:00 +13°C° 0 mm 2 mps 734 mmHg 84%

    2 June, Tuesday

    Time Temperature Precipitation Wind Pressure Humidity
    00:00 +12°C° 0 mm 2 mps 734 mmHg 83%
    01:00 +12°C° 0 mm 2 mps 734 mmHg 83%
    02:00 +12°C° 0 mm 2 mps 734 mmHg 83%
    03:00 +10°C° 0 mm 2 mps 734 mmHg 82%
    04:00 +10°C° 0 mm 3 mps 734 mmHg 82%
    05:00 +12°C° 0 mm 3 mps 734 mmHg 77%
    06:00 +14°C° 0 mm 3 mps 734 mmHg 71%
    07:00 +16°C° 0 mm 3 mps 734 mmHg 66%
    08:00 +18°C° 0 mm 3 mps 734 mmHg 58%
    09:00 +19°C° 0 mm 3 mps 734 mmHg 51%
    10:00 +20°C° 0 mm 3 mps 735 mmHg 43%
    11:00 +21°C° 0 mm 3 mps 734 mmHg 43%
    12:00 +21°C° 0 mm 3 mps 734 mmHg 43%
    13:00 +21°C° 0 mm 3 mps 734 mmHg 43%
    14:00 +21°C° 0 mm 4 mps 734 mmHg 46%
    15:00 +21°C° 0 mm 4 mps 734 mmHg 49%
    16:00 +20°C° 0 mm 4 mps 733 mmHg 51%
    17:00 +19°C° 0 mm 4 mps 733 mmHg 58%
    18:00 +17°C° 0 mm 4 mps 733 mmHg 65%
    19:00 +14°C° 0 mm 3 mps 733 mmHg 71%
    20:00 +13°C° 0 mm 3 mps 734 mmHg 71%
    21:00 +12°C° 0 mm 3 mps 734 mmHg 72%
    22:00 +11°C° 0 mm 3 mps 734 mmHg 72%
    23:00 +11°C° 0 mm 3 mps 734 mmHg 72%

    3 June, Wednesday

    Time Temperature Precipitation Wind Pressure Humidity
    00:00 +10°C° 0 mm 3 mps 734 mmHg 73%
    01:00 +10°C° 0 mm 3 mps 734 mmHg 74%
    02:00 +9°C° 0 mm 3 mps 733 mmHg 74%
    03:00 +9°C° 0 mm 3 mps 733 mmHg 74%
    04:00 +9°C° 0 mm 3 mps 733 mmHg 74%
    05:00 +12°C° 0 mm 2 mps 733 mmHg 70%
    06:00 +13°C° 0 mm 2 mps 733 mmHg 65%
    07:00 +15°C° 0 mm 2 mps 733 mmHg 60%
    08:00 +17°C° 0 mm 2 mps 733 mmHg 56%
    09:00 +20°C° 0 mm 1 mps 733 mmHg 51%
    10:00 +21°C° 0 mm 1 mps 733 mmHg 46%
    11:00 +21°C° 0 mm 2 mps 733 mmHg 45%
    12:00 +21°C° 0 mm 2 mps 733 mmHg 44%
    13:00 +21°C° 0 mm 3 mps 732 mmHg 43%
    14:00 +21°C° 0 mm 2 mps 732 mmHg 46%
    15:00 +20°C° 0 mm 2 mps 732 mmHg 49%
    16:00 +20°C° 0 mm 2 mps 732 mmHg 51%
    17:00 +18°C° 0 mm 2 mps 733 mmHg 57%
    18:00 +18°C° 0 mm 1 mps 733 mmHg 62%
    19:00 +15°C° 0 mm 1 mps 733 mmHg 68%
    20:00 +15°C° 0 mm 1 mps 733 mmHg 67%
    21:00 +15°C° 0 mm 1 mps 734 mmHg 67%
    22:00 +14°C° 0 mm 1 mps 734 mmHg 67%
    23:00 +14°C° 0 mm 1 mps 734 mmHg 69%

    4 June, Thursday

    Time Temperature Precipitation Wind Pressure Humidity
    00:00 +14°C° 0 mm 1 mps 734 mmHg 71%
    01:00 +13°C° 0 mm 1 mps 734 mmHg 72%
    02:00 +13°C° 0 mm 1 mps 734 mmHg 74%
    03:00 +13°C° 0 mm 1 mps 734 mmHg 76%
    04:00 +12°C° 0 mm 1 mps 734 mmHg 78%
    05:00 +14°C° 0 mm 1 mps 734 mmHg 75%
    06:00 +16°C° 0 mm 1 mps 734 mmHg 72%
    07:00 +18°C° 0 mm 1 mps 734 mmHg 69%
    08:00 +19°C° 0 mm 1 mps 734 mmHg 66%
    09:00 +19°C° 0 mm 2 mps 734 mmHg 62%
    10:00 +20°C° 0 mm 2 mps 735 mmHg 59%
    11:00 +21°C° 0 mm 2 mps 734 mmHg 59%
    12:00 +21°C° 0 mm 3 mps 734 mmHg 58%
    13:00 +21°C° 0 mm 3 mps 734 mmHg 58%
    14:00 +21°C° 0 mm 3 mps 734 mmHg 58%
    15:00 +21°C° 0 mm 3 mps 734 mmHg 58%
    16:00 +21°C° 0 mm 3 mps 734 mmHg 58%
    17:00 +19°C° 0 mm 2 mps 734 mmHg 64%
    18:00 +18°C° 0 mm 1 mps 734 mmHg 71%
    19:00 +15°C° 0 mm 1 mps 735 mmHg 78%
    20:00 +15°C° 0 mm 1 mps 735 mmHg 79%
    21:00 +14°C° 0 mm 1 mps 735 mmHg 80%
    22:00 +14°C° 0 mm 1 mps 735 mmHg 81%
    23:00 +13°C° 0 mm 1 mps 735 mmHg 81%
    Show more